Regional Weather Roundup
Issued by NWS

Home | Current Version | Previous Version | Text Only | Print | Product List | Glossary On
Versions: 1 2 3 4 5 6 7 8 9 10 11 12 13 14 15 16 17 18 19 20 21 22 23 24 25 26 27 28 29 30 31 32 33 34 35 36 37 38 39 40 41 42 43 44 45 46 47 48 49 50
000
ASUS45 KBOI 232210
RWRID
WEATHER ROUNDUP FOR IDAHO
NATIONAL WEATHER SERVICE BOISE ID
400 PM MDT WED JUL 23 2014

NOTE: "FAIR" INDICATES FEW OR NO CLOUDS BELOW 12000 FEET
WITH NO SIGNIFICANT WEATHER AND/OR OBSTRUCTIONS TO VISIBILITY

IDZ012-014-232300-
SOUTHWEST IDAHO


CITY           SKY/WX    TMP DP  RH WIND       PRES   REMARKS
BOISE          SUNNY     92  42  17 VRB3      29.95F
CALDWELL       SUNNY     91  48  22 E8        29.95F
MOUNTAIN HOME  MOSUNNY   94  44  18 VRB5      29.94F HX  90
$$

IDZ016-017-232300-
SOUTHCENTRAL IDAHO


CITY           SKY/WX    TMP DP  RH WIND       PRES   REMARKS
BURLEY         SUNNY     94  44  17 N10       30.00F HX  90
JEROME         MOSUNNY   95  40  14 W3        30.01F HX  91
TWIN FALLS     MOSUNNY   94  43  17 N10       30.00F HX  90
$$

IDZ019>023-232300-
SOUTHEAST IDAHO


CITY           SKY/WX    TMP DP  RH WIND       PRES   REMARKS
IDAHO FALLS    MOSUNNY   92  40  16 W14       30.08F
POCATELLO      SUNNY     95  41  15 NW10      30.06F HX  91
REXBURG        MOSUNNY   90  42  18 W9        30.11F
$$

IDZ006-010-011-018-031-032-232300-
CENTRAL IDAHO MOUNTAINS


CITY           SKY/WX    TMP DP  RH WIND       PRES   REMARKS
MCCALL         MOSUNNY   83  42  23 S16       30.09F
HAILEY         MOSUNNY   84  50  30 E10G17    30.15F
STANLEY          N/A     81  31  16 S12G21    30.19F
SALMON         MOSUNNY   88  50  27 NW10      29.94F
CHALLIS        MOSUNNY   86  36  16 CALM      30.04F
$$

IDZ002-004-006-007-026-232300-
NORTHERN IDAHO


CITY           SKY/WX    TMP DP  RH WIND       PRES   REMARKS
LEWISTON       MOSUNNY   93  56  28 NW15G21   29.80F HX  91
LOWELL           N/A     98  64  32 CALM      29.76F HX 100
COEUR D`ALENE  PTSUNNY   86  55  35 CALM      29.85F
MULLAN PASS    MOSUNNY   74  45  35 VRB6      30.11F
$$


USA.gov is the U.S. government's official web portal to all federal, state and local government web resources and services.